Weather History for Owensboro, KY

Change the Weather History Date:

Thursday, August 8, 2013

  Actual Average Record
Temperature  
Mean Temperature 80 °F -  
Max Temperature 88 °F 87 °F 99 °F (1944)
Min Temperature 72 °F 64 °F 48 °F (1989)
Cooling Degree Days 15    
Growing Degree Days 30 (Base 50)    
Moisture  
Dew Point 75 °F    
Average Humidity 93    
Maximum Humidity 100    
Minimum Humidity 63    
Precipitation  
Precipitation 0.00 in - - ()
Sea Level Pressure  
Sea Level Pressure 29.93 in    
Wind  
Wind Speed 3 mph (South)    
Max Wind Speed 9 mph    
Max Gust Speed -    
Visibility 8 miles    
Events Fog , Rain , Thunderstorm    
Averages and records for this station are not official NWS values.
T = Trace of Precipitation, MM = Missing Value Source: NWS Daily Summary

Daily Weather History Graph

Daily Weather History Graph

Search for Another Location

Airport:

Trip Planner

Search our weather history database for the weather conditions in past years. The results will help you decide how hot, cold, wet, or windy it might be!

Date:

Astronomy

Aug. 08, 2013 Rise Set
Actual Time 5:58 AM CDT 7:49 PM CDT
Civil Twilight 5:29 AM CDT 8:17 PM CDT
Nautical Twilight 4:55 AM CDT 8:52 PM CDT
Astronomical Twilight 4:18 AM CDT 9:29 PM CDT
Moon 7:41 AM CDT (8/8) 8:31 PM CDT (8/8)
Length of Visible Light 14h 47m
Length of Day
13h 51m
Waxing Crescent, 3% of the Moon is Illuminated
Aug 8
Waxing Crescent
Aug 14
First Quarter
Aug 20
Full
Aug 28
Last Quarter
Sep 5
New

Hourly Weather History & Observations

Time (CDT) Temp. Heat Index Dew Point Humidity Pressure Visibility Wind Dir Wind Speed Gust Speed Precip Events Conditions
12:56 AM 73.9 °F - 73.9 °F 100% 29.93 in 10.0 mi Calm Calm - N/A   Clear
1:56 AM 72.9 °F - 72.9 °F 100% 29.92 in 10.0 mi Calm Calm - N/A   Clear
2:56 AM 72.9 °F - 72.9 °F 100% 29.91 in 10.0 mi Calm Calm - N/A   Clear
3:41 AM 73.4 °F - 73.4 °F 100% 29.92 in 10.0 mi Calm Calm - N/A   Mostly Cloudy
3:56 AM 72.9 °F - 72.9 °F 100% 29.91 in 10.0 mi Calm Calm - N/A   Mostly Cloudy
4:35 AM 73.4 °F - 73.4 °F 100% 29.91 in 10.0 mi Calm Calm - N/A   Scattered Clouds
4:56 AM 72.9 °F - 72.9 °F 100% 29.91 in 8.0 mi Calm Calm - N/A   Mostly Cloudy
5:10 AM 73.4 °F - 73.4 °F 100% 29.92 in 8.0 mi Calm Calm - N/A   Mostly Cloudy
5:56 AM 72.9 °F - 72.9 °F 100% 29.92 in 5.0 mi Calm Calm - N/A   Mostly Cloudy
6:12 AM 73.4 °F - 73.4 °F 100% 29.93 in 4.0 mi East 3.5 mph - N/A   Overcast
6:56 AM 73.9 °F - 73.9 °F 100% 29.91 in 3.0 mi Calm Calm - N/A   Overcast
7:32 AM 75.2 °F - 75.2 °F 100% 29.94 in 3.0 mi Calm Calm - N/A   Overcast
7:56 AM 75.9 °F - 75.9 °F 100% 29.94 in 1.0 mi SE 6.9 mph - N/A   Overcast
8:00 AM 75.2 °F - 75.2 °F 100% 29.95 in 0.5 mi SSE 6.9 mph - N/A Fog Fog
8:35 AM 75.2 °F - 75.2 °F 100% 29.96 in 1.0 mi SE 5.8 mph - N/A   Overcast
8:56 AM 75.9 °F - 75.9 °F 100% 29.95 in 3.0 mi SSE 6.9 mph - N/A   Overcast
9:05 AM 77.0 °F - 77.0 °F 100% 29.96 in 3.0 mi SE 4.6 mph - N/A   Overcast
9:40 AM 78.8 °F - 77.0 °F 94% 29.97 in 5.0 mi SSE 5.8 mph - N/A   Mostly Cloudy
9:56 AM 81.9 °F 89.7 °F 77.0 °F 85% 29.96 in 7.0 mi Variable 3.5 mph - N/A   Mostly Cloudy
10:30 AM 82.4 °F 88.2 °F 73.4 °F 74% 29.98 in 10.0 mi SSW 5.8 mph - N/A   Mostly Cloudy
10:56 AM 82.9 °F 89.4 °F 73.9 °F 74% 29.96 in 10.0 mi WSW 8.1 mph - N/A   Mostly Cloudy
11:56 AM 86.0 °F 93.8 °F 73.9 °F 67% 29.94 in 10.0 mi SW 4.6 mph - N/A   Scattered Clouds
12:56 PM 86.9 °F 94.1 °F 72.9 °F 63% 29.94 in 10.0 mi WSW 9.2 mph - N/A   Scattered Clouds
1:56 PM 88.0 °F 97.5 °F 74.8 °F 65% 29.93 in 10.0 mi WSW 8.1 mph - N/A   Scattered Clouds
2:56 PM 83.8 °F 92.5 °F 75.9 °F 77% 29.91 in 10.0 mi SSE 4.6 mph - N/A Thunderstorm Partly Cloudy
3:28 PM 82.4 °F 89.5 °F 75.2 °F 79% 29.91 in 8.0 mi South 6.9 mph - 0.00 in Rain Light Rain
3:56 PM 79.9 °F - 77.9 °F 94% 29.89 in 8.0 mi South 9.2 mph - 0.00 in Rain Light Rain
4:56 PM 77.9 °F - 77.9 °F 100% 29.92 in 8.0 mi SSW 9.2 mph - 0.00 in   Scattered Clouds
5:56 PM 79.9 °F - 77.0 °F 91% 29.90 in 10.0 mi SW 5.8 mph - N/A   Clear
6:56 PM 79.9 °F - 77.0 °F 91% 29.88 in 10.0 mi SSW 8.1 mph - N/A   Clear
7:45 PM 78.8 °F - 77.0 °F 94% 29.91 in 10.0 mi SW 9.2 mph - N/A   Mostly Cloudy
7:56 PM 77.9 °F - 77.0 °F 97% 29.90 in 10.0 mi SSW 6.9 mph - N/A   Partly Cloudy
8:56 PM 75.9 °F - 75.9 °F 100% 29.94 in 8.0 mi Calm Calm - N/A   Partly Cloudy
9:31 PM 75.2 °F - 75.2 °F 100% 29.96 in 9.0 mi SSW 3.5 mph - N/A   Mostly Cloudy
9:38 PM 75.2 °F - 75.2 °F 100% 29.96 in 10.0 mi SSW 5.8 mph - N/A   Mostly Cloudy
9:56 PM 75.9 °F - 75.9 °F 100% 29.95 in 10.0 mi SSW 3.5 mph - N/A   Mostly Cloudy
10:43 PM 75.2 °F - 75.2 °F 100% 29.95 in 10.0 mi South 5.8 mph - N/A   Mostly Cloudy
10:56 PM 74.8 °F - 74.8 °F 100% 29.93 in 10.0 mi South 4.6 mph - N/A   Mostly Cloudy
11:56 PM 73.9 °F - 73.9 °F 100% 29.93 in 10.0 mi South 3.5 mph - N/A   Mostly Cloudy